SCP
-0 0 0 0 0 -0 0 -0 0 -0 0 0 0 0 0 0 0 0 0 0 -0 -0 0 0 -0 -0 -0 -0 -0 -0 -0 -0 -0 -0 -0 -0 -0 -0 -0 0 0 0 -0 -0 -0 -0 -0 -0 -0
0 0 0 0 0 0 0 0 -0 -0 0 0 0 0 0 0 0 -0 -0 -0 -0 -0 -0 0 -0 -0 -0 -0 -0 -0 -0 -0 -0 -0 -0 -0 -0 -0 -0 -0 0 0 -0 -0 -0 -0 -0 -0 -0
-0 0 0 0 0 0 0 0 -0 -0 0 0 0 0 0 0 0 -0 -0 -0 -0 -0 -0 -0 -0 -0 -0 -0 -0 -0 -0 -0 -0 -0 -0 -0 -0 -0 0 0 0 0 0 -0 -0 -0 -0 -0 -0
0 0 0 0 0 0 0 0 0 0 0 0 0 0 0 0 0 -0 -0 -0 -0 -0 -0 -0 -0 -0 -0 -0 -0 -0 -0 -0 -0 -0 -0 -0 -0 -0 0 0 0 0 0 0 0 -0 -0 -0 -0
0 0 0 0 0 0 0 0 0 0 0 -0 0 0 0 -0 0 -0 -0 -0 -0 -0 -0 -0 -0 -0 -0 -0 -0 -0 -0 -0 -0 -0 -0 -0 -0 -0 0 0 0 0 0 0 0 0 0 0 -0
0 0 -0 -0 0 0 0 0 0 -0 0 -0 0 0 0 -0 -0 -0 -0 -0 -0 -0 -0 -0 -0 -0 -0 -0 -0 -0 -0 -0 -0 -0 -0 -0 -0 -0 -0 0 0 0 0 0 -0 0 0 0 0
-0 0 0 0 0 0 0 -0 0 0 0 0 -0 0 0 -0 -0 -0 -0 -0 -0 -0 -0 -0 -0 -0 -0 -0 -0 -0 -0 -0 -0 -0 -0 -0 -0 -0 -0 -0 0 0 0 0 0 -0 -0 -0 -0
-0 -0 -0 -0 -0 0 0 0 -0 0 0 0 0 0 0 -0 -0 -0 -0 -0 -0 -0 -0 -0 -0 -0 0 0 -0 -0 -0 -0 -0 -0 -0 -0 -0 -0 -0 0 -0 -0 0 0 0 0 0 -0 -0
0 0 -0 -0 0 -0 -0 -0 0 0 -0 0 -0 -0 -0 -0 -0 -0 -0 -0 -0 -0 -0 -0 -0 -0 -0 -0 -0 -0 -0 -0 -0 -0 -0 0 -0 -0 0 0 0 0 0 0 -0 -0 -0 0 -0
0 -0 -0 -0 -0 0 -0 0 0 0 0 0 -0 -0 -1 -0 -0 -0 -0 -0 -0 -0 -0 -0 -0 -0 -0 -0 -0 -0 -0 -0 -0 0 0 0 -0 0 0 0 0 0 -0 -0 0 -0 -0 0 -0
-0 -0 -0 -0 -0 -0 -0 0 0 0 0 0 -0 -0 -0 -0 -0 -0 -0 -0 -0 -0 -0 -0 -0 -0 -0 -0 -0 -0 0 0 -0 -0 0 -0 0 0 0 -0 -0 -0 -0 -0 -0 -0 -0 0 0
-0 0 0 -0 -0 -0 -0 -0 0 -0 0 0 -1 -1 -0 -0 -0 -0 -0 -0 -0 -0 -0 -0 -0 -0 -0 -0 -0 -0 0 0 0 -0 -0 -0 -0 -0 -0 -0 -0 -0 -0 -0 -0 -0 -0 -0 -0
-0 -0 -0 0 -0 -0 -0 -0 0 0 0 -0 -0 -0 -0 -0 -0 -0 -0 -0 -0 -0 -0 -0 -0 -0 -0 -0 -0 0 0 0 0 0 -0 -0 -0 -0 -0 -0 -0 -0 -0 -0 -0 -0 -0 -0 -0
-0 -0 -0 -0 -0 -0 -0 0 0 0 -0 -0 -0 -0 -0 -0 -0 -0 -0 -0 -0 -0 -0 -0 -0 -0 -0 0 0 0 0 0 0 0 -0 0 -0 0 0 0 -0 -0 0 0 0 -0 -0 -0 -0
0 -0 -0 -0 0 -0 0 0 0 0 -0 -0 -0 -0 -0 -0 -0 -0 -0 -0 -0 -0 -0 -0 -0 -0 -0 -0 0 0 0 0 0 0 -0 -0 0 0 0 0 0 0 0 0 0 -0 -0 -0 0
0 0 0 0 -0 0 0 -0 0 -0 0 0 -0 -0 -0 -0 -0 -0 -0 -0 -0 -0 -0 -0 -0 -0 -0 -0 0 0 0 0 0 -0 0 -0 -0 0 0 0 0 0 0 0 0 0 -0 -0 0
-0 0 0 0 0 0 0 0 0 0 -0 -0 -0 -0 -0 -0 -0 -0 -0 0 0 -0 -0 -0 -0 -0 -0 0 0 0 0 0 0 -0 -0 -0 -0 0 0 0 0 0 0 0 0 0 0 -0 -0
0 -0 -0 -0 0 -0 -0 -0 0 -0 -0 0 0 -0 -0 -0 -0 -0 -0 0 0 -0 -0 -0 0 0 0 0 0 0 0 0 0 0 -0 -0 -0 0 0 0 0 0 0 0 0 0 0 0 0
0 -0 -0 0 0 0 -0 -0 0 -0 0 0 -0 -0 0 -0 -0 -0 0 0 0 -0 -0 -0 -0 0 0 0 0 0 0 -0 0 0 0 0 -0 0 0 0 0 0 0 0 0 0 0 0 0
-0 -0 -0 -0 -0 0 0 -0 -0 -0 -0 0 -0 -0 -0 0 0 -0 0 0 0 -0 -0 -0 -0 0 0 0 0 0 0 0 -0 0 -0 0 0 0 0 0 0 0 0 0 0 0 0 0 0
-0 -0 0 0 0 0 0 0 -0 0 0 -0 -0 -0 -0 -0 -0 -0 -0 -0 -0 0 -0 -0 -0 0 0 0 0 0 0 0 0 0 0 0 0 0 0 0 0 0 0 0 0 0 0 0 0
-0 -0 0 0 -0 -0 0 -0 -0 -0 -0 -0 -0 -0 -0 -0 -0 -0 -0 -0 -0 0 0 0 -0 -0 0 0 0 0 0 0 0 0 0 0 0 0 0 0 0 0 0 0 0 0 0 0 0
-0 0 0 0 0 -0 0 0 0 -0 -0 -0 0 -0 -0 -0 -0 -0 -0 -0 0 0 0 0 0 0 0 0 0 0 0 0 0 0 0 0 0 0 0 0 0 0 0 0 0 0 0 0 0
0 -0 0 0 0 0 0 0 -0 0 -0 0 0 -0 -0 0 -0 -0 -0 -0 0 0 0 0 0 0 0 0 0 0 0 0 0 0 0 0 0 0 0 0 0 0 0 0 0 0 0 0 0
0 0 0 0 0 -0 0 -0 -0 -0 0 -0 -0 -0 -0 0 0 0 -0 0 0 0 0 0 0 0 0 -0 0 0 0 0 0 0 0 0 -0 -0 -0 -0 0 0 0 0 0 0 -0 0 0
0 0 0 0 0 0 0 -0 0 -0 -0 0 -0 -0 -0 0 0 0 -0 -0 -0 0 0 0 0 0 0 -0 -0 0 0 0 0 0 0 0 -0 0 0 0 0 0 0 0 0 0 0 0 0
0 0 0 0 0 0 0 0 -0 0 -0 -0 -0 0 -0 0 0 0 0 0 0 0 0 0 -0 0 0 -0 0 0 0 0 0 -0 0 -0 -0 -0 0 0 0 0 0 0 0 0 0 0 0
0 0 0 0 0 0 0 0 -0 0 0 0 -0 -0 -0 0 0 0 0 0 0 0 0 0 0 -0 0 0 0 0 0 -0 0 -0 0 0 0 -0 -0 0 0 0 0 0 0 0 0 0 0
0 0 0 0 0 0 -0 -0 -0 0 0 -0 -0 -0 -0 0 0 0 0 0 1 1 0 0 0 0 0 0 0 0 0 -0 -0 -0 -0 -0 -0 0 -0 0 0 0 0 0 0 0 0 0 0
0 0 0 0 0 0 0 0 0 0 0 0 0 0 -0 -0 0 0 0 1 1 1 0 0 0 0 0 0 -0 -0 -0 -0 -0 -0 -0 0 -0 -0 -0 0 0 0 0 0 0 0 0 0 0
Wind_Speed_500mb
3 10 11 4 6 8 6 7 4 4 4 2 29 6 9 7 2 5 35 68 68 68 62 52 49 47 46 45 43 42 40 39 37 36 34 32 29 26 24 16 12 14 14 14 16 18 16 21 25
5 13 5 2 8 7 6 8 4 4 19 28 18 15 8 6 6 21 68 64 69 69 62 54 49 49 47 46 43 40 39 38 36 35 32 30 28 27 21 17 18 18 18 19 19 20 19 23 25
9 7 5 7 6 8 5 4 2 1 12 5 9 14 5 5 13 61 62 73 68 66 60 54 51 52 49 43 42 42 39 39 36 32 29 29 30 27 17 16 21 21 21 20 18 20 22 23 23
8 3 6 7 5 5 7 3 8 7 3 7 25 11 10 1 40 48 66 73 68 64 57 54 52 52 48 44 45 41 35 34 33 30 30 28 31 27 16 16 20 19 19 19 20 17 21 23 24
9 3 6 6 1 8 12 25 11 5 1 13 7 6 18 15 27 49 64 71 67 63 56 54 52 50 44 44 47 44 33 32 31 30 30 30 30 26 19 17 18 17 20 20 18 16 19 22 23
3 4 7 2 5 7 6 12 17 21 6 13 18 15 8 6 27 53 61 65 60 59 54 54 51 48 41 43 45 41 33 34 28 28 30 30 25 23 19 19 18 19 19 21 18 18 20 22 20
8 6 3 2 4 8 5 16 12 10 10 7 34 8 9 23 41 52 62 59 57 55 53 53 52 48 40 37 42 38 31 32 31 26 26 25 20 20 19 20 20 19 17 19 17 15 16 19 21
8 6 5 4 3 8 8 14 26 16 2 27 22 12 13 39 50 55 61 57 54 54 52 49 50 50 45 38 40 35 32 31 31 29 26 19 18 16 18 20 20 19 18 17 18 19 17 17 18
10 5 3 8 7 7 24 7 22 8 26 11 19 10 27 55 54 57 64 59 56 54 52 49 51 49 46 41 38 38 33 30 32 28 25 20 12 12 23 22 21 18 16 17 17 16 18 19 18
6 4 9 10 11 10 27 20 29 10 21 4 17 13 45 60 54 59 68 66 62 61 56 53 51 51 47 43 37 37 37 34 33 31 26 17 11 8 21 26 25 19 12 14 18 22 20 18 16
8 6 3 10 6 31 24 12 16 18 9 19 34 46 69 63 57 59 66 65 64 62 58 58 54 52 50 46 43 40 38 37 35 31 26 18 13 11 17 27 28 19 12 13 18 21 18 18 18
2 20 14 8 26 33 17 16 9 28 8 17 28 48 73 67 64 62 62 60 58 60 60 60 55 53 50 46 43 41 39 38 35 31 30 23 15 14 14 22 27 22 17 16 15 17 19 22 21
6 6 19 27 29 45 28 16 6 10 6 23 39 59 72 70 67 62 56 54 51 53 57 58 55 53 51 47 43 41 39 38 34 34 31 26 18 18 17 16 21 22 21 19 20 21 19 19 20
9 16 9 11 27 36 25 7 8 8 29 37 46 62 68 71 73 68 66 55 51 50 54 58 57 56 53 50 45 42 40 38 36 33 31 28 21 18 20 20 20 22 21 21 24 26 27 24 20
14 8 7 4 9 6 16 3 9 30 43 46 53 55 63 67 69 71 66 59 50 49 50 58 56 56 55 51 47 45 43 42 39 33 30 31 26 21 17 18 20 18 17 28 27 28 23 26 22
9 9 6 6 13 10 14 18 10 44 53 47 50 56 63 70 72 70 69 63 57 51 54 53 55 51 53 51 50 48 47 43 39 33 29 27 26 27 23 17 14 12 16 20 22 24 25 23 20
13 3 6 11 8 3 6 15 13 53 51 46 48 56 55 65 74 74 72 67 61 60 52 57 56 52 49 49 50 50 44 44 39 34 28 28 23 25 25 23 17 21 19 21 24 26 26 23 21
2 6 5 5 3 14 14 31 8 38 42 37 49 55 58 61 74 74 72 67 64 57 68 56 60 56 54 54 52 56 50 46 39 36 30 30 27 24 24 25 24 23 21 22 25 31 25 23 22
4 5 8 11 11 11 20 20 17 31 34 30 48 55 56 64 64 71 62 67 64 63 62 70 67 67 63 63 58 62 66 56 50 42 35 35 33 31 28 29 29 33 19 21 26 29 31 27 25
4 6 12 18 19 14 10 14 13 13 26 42 47 54 61 60 60 62 67 68 64 69 67 66 59 71 71 70 64 63 65 55 59 43 40 35 31 32 28 31 31 24 21 26 29 30 35 29 30
4 6 7 10 14 4 4 9 9 11 20 29 48 55 62 67 61 53 55 65 70 67 66 65 60 58 75 78 72 66 66 66 57 55 49 34 29 31 31 29 28 27 27 27 29 31 30 30 31
13 10 10 10 1 8 4 8 12 9 9 16 34 49 63 70 66 60 54 42 50 71 63 56 52 54 66 80 78 78 75 68 63 58 46 49 37 30 32 26 27 25 28 26 25 27 29 30 30
8 5 7 8 5 2 10 7 15 10 12 16 24 50 62 64 60 63 67 55 36 50 53 60 57 51 58 72 82 74 82 72 67 63 55 44 34 34 48 40 34 33 31 25 26 30 32 32 33
4 4 11 8 7 3 3 6 14 6 12 11 9 49 62 60 54 46 49 52 50 41 45 46 50 52 51 62 70 67 83 77 70 69 66 60 38 29 40 46 40 37 36 33 30 30 33 36 40
10 12 7 7 7 10 3 2 18 10 14 13 16 26 45 54 51 42 36 34 34 38 32 48 45 41 44 51 53 70 70 75 68 59 57 51 40 35 37 41 43 42 37 33 31 35 33 31 39
10 17 11 11 8 9 2 9 11 10 14 36 30 36 30 40 47 39 32 31 31 41 29 27 44 41 44 48 50 52 56 69 63 58 49 47 41 43 40 41 39 34 29 34 37 34 33 34 36
8 8 9 14 7 5 7 15 20 10 12 20 34 34 42 40 39 36 32 30 30 39 41 33 36 32 35 36 41 45 56 54 44 46 46 48 49 41 34 36 37 28 28 25 35 32 35 35 37
12 12 6 5 8 6 9 10 11 15 12 7 14 35 37 31 35 33 33 31 26 33 33 30 33 30 27 34 41 46 43 41 47 44 44 41 32 30 34 32 30 21 25 29 33 32 37 38 37
3 2 11 10 8 12 7 13 16 19 15 18 17 32 32 30 39 32 30 31 26 31 25 24 29 30 30 33 38 40 38 37 35 34 30 25 23 24 28 29 21 17 19 19 28 35 36 39 35
7 13 12 10 9 2 7 14 11 20 16 18 37 29 25 29 34 35 30 29 32 29 27 26 28 30 29 27 28 29 30 33 34 32 30 24 23 23 23 25 20 18 11 8 19 34 36 33 33
Wind_Direction_500mb
89 113 107 89 50 70 356 319 200 83 89 61 146 149 162 64 127 196 148 159 163 158 160 163 165 164 163 159 157 156 154 154 154 154 157 155 150 142 134 124 135 144 152 148 142 132 140 134 129
89 125 121 344 84 64 300 284 36 348 118 111 123 99 61 86 81 140 151 157 162 159 160 164 167 163 163 158 158 156 156 156 155 155 157 156 150 147 133 109 121 127 133 140 138 140 138 141 142
106 58 335 83 41 133 195 231 42 124 142 107 119 72 67 69 134 149 157 158 162 161 163 162 166 167 163 161 158 152 155 156 155 158 160 162 156 157 136 113 119 127 139 138 141 146 147 144 148
118 147 31 77 98 223 198 264 64 234 326 155 115 62 56 313 142 149 157 161 163 162 162 162 167 166 165 163 158 152 158 160 158 162 162 161 165 166 150 121 127 141 140 141 141 156 154 150 150
163 43 63 71 229 265 231 225 230 251 116 88 133 105 112 106 144 153 158 163 166 162 164 165 168 166 169 166 162 158 161 155 154 154 158 158 164 166 155 137 138 135 148 148 152 148 148 148 149
73 101 49 61 256 247 251 225 208 235 124 125 97 94 125 203 174 162 163 165 168 165 165 167 169 166 165 163 163 161 162 160 160 156 156 156 161 163 158 149 147 140 143 151 154 147 153 150 155
133 77 165 272 311 298 233 167 190 171 143 119 136 87 123 162 169 164 166 167 169 169 166 171 172 169 164 160 164 165 169 169 163 161 156 156 163 171 168 161 156 156 150 154 160 160 155 165 166
151 97 144 310 34 288 143 140 187 158 144 150 164 149 172 175 165 168 169 170 172 173 171 175 177 176 169 170 169 170 178 176 167 168 158 159 171 186 175 168 164 165 162 165 172 184 190 186 188
150 72 151 175 163 238 164 142 164 181 147 157 181 178 170 164 169 169 173 175 178 180 180 181 184 184 179 176 178 176 177 186 174 175 168 161 157 195 192 182 168 165 167 176 183 192 196 203 213
108 83 220 199 198 183 180 160 171 138 158 114 147 154 167 165 170 172 178 180 184 188 187 188 189 188 185 181 187 184 184 190 187 184 180 170 160 154 178 181 171 162 173 192 194 195 202 211 211
166 193 232 240 159 162 156 182 176 130 226 204 167 160 168 170 174 175 179 186 191 193 193 191 193 193 192 190 194 192 190 193 195 195 194 189 182 178 186 187 187 193 198 202 215 212 206 211 221
315 231 247 206 199 162 167 176 198 168 286 246 194 174 171 176 179 180 183 192 196 195 194 193 196 199 201 201 202 199 198 199 203 203 204 211 212 200 187 195 203 209 211 213 214 203 210 223 218
209 221 244 237 191 177 173 193 169 200 282 169 170 175 179 182 185 188 191 195 201 200 198 197 198 202 207 208 208 205 201 202 206 206 212 213 215 214 203 195 203 210 217 221 227 226 227 230 219
265 259 224 264 165 176 164 149 160 162 172 173 177 182 190 190 190 191 197 198 205 204 203 202 204 206 208 212 212 209 205 202 204 206 206 213 211 214 222 220 222 211 228 238 242 240 240 234 237
262 309 121 157 159 147 131 315 237 178 177 181 184 189 198 199 199 201 201 201 200 206 204 207 207 212 213 217 215 210 202 201 202 208 208 214 220 217 229 238 250 242 244 234 242 242 229 221 227
29 57 106 229 162 198 156 252 221 185 181 188 187 191 199 202 208 211 213 210 207 204 206 208 210 216 217 216 215 209 203 204 202 203 211 216 226 229 227 235 245 251 256 251 244 229 226 217 225
14 103 42 360 247 55 192 262 224 184 189 196 193 197 198 209 214 219 222 221 218 219 215 216 213 213 209 208 209 205 203 202 202 206 211 221 223 227 226 237 243 242 252 248 244 233 231 227 217
358 356 325 217 221 185 228 261 232 189 192 203 205 210 208 214 223 220 224 229 227 230 227 224 221 216 212 209 206 203 205 205 211 207 218 225 220 225 235 232 235 237 248 254 246 232 236 222 225
154 206 276 266 221 225 219 258 243 195 209 203 213 217 219 223 230 228 223 228 232 235 228 222 223 222 215 213 208 209 212 211 214 207 215 227 228 232 250 251 247 233 235 256 251 233 235 224 218
188 305 288 287 337 174 163 229 270 177 222 214 210 218 227 231 232 226 230 231 229 232 234 226 225 226 224 221 216 217 219 219 230 208 223 227 233 246 256 267 276 253 250 243 243 240 233 228 220
253 221 249 243 304 36 76 302 283 262 224 217 230 237 237 237 237 236 224 232 235 227 232 231 228 230 229 228 223 223 229 231 232 223 221 218 226 251 255 270 273 276 264 252 243 240 238 231 220
274 201 249 277 184 239 5 259 287 311 286 226 231 230 241 245 236 235 230 246 228 226 233 231 234 235 234 232 228 230 233 233 231 225 229 222 248 251 251 259 277 279 268 262 238 239 241 232 227
205 194 263 345 129 194 2 72 270 360 306 248 222 232 240 244 241 237 241 242 242 231 238 240 232 238 238 238 231 236 235 241 239 232 225 229 270 253 250 254 272 279 266 254 244 241 243 238 227
128 76 41 56 77 49 330 127 290 244 227 289 231 232 243 248 246 246 247 238 244 243 241 236 238 240 242 239 237 241 238 235 241 241 237 252 257 263 254 250 262 271 263 254 248 238 247 246 227
94 64 339 3 16 219 308 66 239 263 251 234 272 257 247 249 250 254 246 241 236 232 254 234 235 237 245 242 236 237 239 234 240 244 254 255 251 261 257 253 256 265 262 253 250 239 242 232 211
171 150 157 191 190 249 271 237 247 229 247 257 269 274 259 254 251 245 241 236 233 230 257 246 235 249 243 237 239 238 240 234 246 251 250 252 250 269 259 246 250 261 259 261 250 239 227 219 211
186 169 178 106 13 69 260 294 306 256 250 266 263 267 265 253 246 236 229 235 228 234 247 260 236 242 238 240 236 232 226 239 242 234 234 244 254 259 241 244 249 251 274 266 242 234 218 213 210
159 155 85 8 135 215 296 289 237 298 254 243 261 256 264 254 244 226 213 211 215 220 233 241 237 244 243 236 230 231 232 236 231 230 234 239 236 239 237 235 236 248 273 268 239 227 218 206 208
96 183 55 122 129 171 210 258 217 240 239 264 252 251 258 257 246 235 202 198 206 200 207 220 225 232 229 230 230 232 229 221 220 219 207 208 220 220 225 230 235 248 280 251 230 227 211 202 201
145 184 141 130 231 155 171 255 230 231 239 251 268 271 282 265 256 244 207 202 198 199 208 228 224 227 225 217 208 200 190 189 188 189 193 209 220 221 223 228 233 229 244 247 213 217 199 197 210
Wind_Speed_850mb
3 10 11 4 6 8 6 7 4 4 4 2 29 6 9 7 2 5 35 68 68 68 62 52 49 47 46 45 43 42 40 39 37 36 34 32 29 26 24 16 12 14 14 14 16 18 16 21 25
5 13 5 2 8 7 6 8 4 4 19 28 18 15 8 6 6 21 68 64 69 69 62 54 49 49 47 46 43 40 39 38 36 35 32 30 28 27 21 17 18 18 18 19 19 20 19 23 25
9 7 5 7 6 8 5 4 2 1 12 5 9 14 5 5 13 61 62 73 68 66 60 54 51 52 49 43 42 42 39 39 36 32 29 29 30 27 17 16 21 21 21 20 18 20 22 23 23
8 3 6 7 5 5 7 3 8 7 3 7 25 11 10 1 40 48 66 73 68 64 57 54 52 52 48 44 45 41 35 34 33 30 30 28 31 27 16 16 20 19 19 19 20 17 21 23 24
9 3 6 6 1 8 12 25 11 5 1 13 7 6 18 15 27 49 64 71 67 63 56 54 52 50 44 44 47 44 33 32 31 30 30 30 30 26 19 17 18 17 20 20 18 16 19 22 23
3 4 7 2 5 7 6 12 17 21 6 13 18 15 8 6 27 53 61 65 60 59 54 54 51 48 41 43 45 41 33 34 28 28 30 30 25 23 19 19 18 19 19 21 18 18 20 22 20
8 6 3 2 4 8 5 16 12 10 10 7 34 8 9 23 41 52 62 59 57 55 53 53 52 48 40 37 42 38 31 32 31 26 26 25 20 20 19 20 20 19 17 19 17 15 16 19 21
8 6 5 4 3 8 8 14 26 16 2 27 22 12 13 39 50 55 61 57 54 54 52 49 50 50 45 38 40 35 32 31 31 29 26 19 18 16 18 20 20 19 18 17 18 19 17 17 18
10 5 3 8 7 7 24 7 22 8 26 11 19 10 27 55 54 57 64 59 56 54 52 49 51 49 46 41 38 38 33 30 32 28 25 20 12 12 23 22 21 18 16 17 17 16 18 19 18
6 4 9 10 11 10 27 20 29 10 21 4 17 13 45 60 54 59 68 66 62 61 56 53 51 51 47 43 37 37 37 34 33 31 26 17 11 8 21 26 25 19 12 14 18 22 20 18 16
8 6 3 10 6 31 24 12 16 18 9 19 34 46 69 63 57 59 66 65 64 62 58 58 54 52 50 46 43 40 38 37 35 31 26 18 13 11 17 27 28 19 12 13 18 21 18 18 18
2 20 14 8 26 33 17 16 9 28 8 17 28 48 73 67 64 62 62 60 58 60 60 60 55 53 50 46 43 41 39 38 35 31 30 23 15 14 14 22 27 22 17 16 15 17 19 22 21
6 6 19 27 29 45 28 16 6 10 6 23 39 59 72 70 67 62 56 54 51 53 57 58 55 53 51 47 43 41 39 38 34 34 31 26 18 18 17 16 21 22 21 19 20 21 19 19 20
9 16 9 11 27 36 25 7 8 8 29 37 46 62 68 71 73 68 66 55 51 50 54 58 57 56 53 50 45 42 40 38 36 33 31 28 21 18 20 20 20 22 21 21 24 26 27 24 20
14 8 7 4 9 6 16 3 9 30 43 46 53 55 63 67 69 71 66 59 50 49 50 58 56 56 55 51 47 45 43 42 39 33 30 31 26 21 17 18 20 18 17 28 27 28 23 26 22
9 9 6 6 13 10 14 18 10 44 53 47 50 56 63 70 72 70 69 63 57 51 54 53 55 51 53 51 50 48 47 43 39 33 29 27 26 27 23 17 14 12 16 20 22 24 25 23 20
13 3 6 11 8 3 6 15 13 53 51 46 48 56 55 65 74 74 72 67 61 60 52 57 56 52 49 49 50 50 44 44 39 34 28 28 23 25 25 23 17 21 19 21 24 26 26 23 21
2 6 5 5 3 14 14 31 8 38 42 37 49 55 58 61 74 74 72 67 64 57 68 56 60 56 54 54 52 56 50 46 39 36 30 30 27 24 24 25 24 23 21 22 25 31 25 23 22
4 5 8 11 11 11 20 20 17 31 34 30 48 55 56 64 64 71 62 67 64 63 62 70 67 67 63 63 58 62 66 56 50 42 35 35 33 31 28 29 29 33 19 21 26 29 31 27 25
4 6 12 18 19 14 10 14 13 13 26 42 47 54 61 60 60 62 67 68 64 69 67 66 59 71 71 70 64 63 65 55 59 43 40 35 31 32 28 31 31 24 21 26 29 30 35 29 30
4 6 7 10 14 4 4 9 9 11 20 29 48 55 62 67 61 53 55 65 70 67 66 65 60 58 75 78 72 66 66 66 57 55 49 34 29 31 31 29 28 27 27 27 29 31 30 30 31
13 10 10 10 1 8 4 8 12 9 9 16 34 49 63 70 66 60 54 42 50 71 63 56 52 54 66 80 78 78 75 68 63 58 46 49 37 30 32 26 27 25 28 26 25 27 29 30 30
8 5 7 8 5 2 10 7 15 10 12 16 24 50 62 64 60 63 67 55 36 50 53 60 57 51 58 72 82 74 82 72 67 63 55 44 34 34 48 40 34 33 31 25 26 30 32 32 33
4 4 11 8 7 3 3 6 14 6 12 11 9 49 62 60 54 46 49 52 50 41 45 46 50 52 51 62 70 67 83 77 70 69 66 60 38 29 40 46 40 37 36 33 30 30 33 36 40
10 12 7 7 7 10 3 2 18 10 14 13 16 26 45 54 51 42 36 34 34 38 32 48 45 41 44 51 53 70 70 75 68 59 57 51 40 35 37 41 43 42 37 33 31 35 33 31 39
10 17 11 11 8 9 2 9 11 10 14 36 30 36 30 40 47 39 32 31 31 41 29 27 44 41 44 48 50 52 56 69 63 58 49 47 41 43 40 41 39 34 29 34 37 34 33 34 36
8 8 9 14 7 5 7 15 20 10 12 20 34 34 42 40 39 36 32 30 30 39 41 33 36 32 35 36 41 45 56 54 44 46 46 48 49 41 34 36 37 28 28 25 35 32 35 35 37
12 12 6 5 8 6 9 10 11 15 12 7 14 35 37 31 35 33 33 31 26 33 33 30 33 30 27 34 41 46 43 41 47 44 44 41 32 30 34 32 30 21 25 29 33 32 37 38 37
3 2 11 10 8 12 7 13 16 19 15 18 17 32 32 30 39 32 30 31 26 31 25 24 29 30 30 33 38 40 38 37 35 34 30 25 23 24 28 29 21 17 19 19 28 35 36 39 35
7 13 12 10 9 2 7 14 11 20 16 18 37 29 25 29 34 35 30 29 32 29 27 26 28 30 29 27 28 29 30 33 34 32 30 24 23 23 23 25 20 18 11 8 19 34 36 33 33
Wind_Direction_850mb
89 113 107 89 50 70 356 319 200 83 89 61 146 149 162 64 127 196 148 159 163 158 160 163 165 164 163 159 157 156 154 154 154 154 157 155 150 142 134 124 135 144 152 148 142 132 140 134 129
89 125 121 344 84 64 300 284 36 348 118 111 123 99 61 86 81 140 151 157 162 159 160 164 167 163 163 158 158 156 156 156 155 155 157 156 150 147 133 109 121 127 133 140 138 140 138 141 142
106 58 335 83 41 133 195 231 42 124 142 107 119 72 67 69 134 149 157 158 162 161 163 162 166 167 163 161 158 152 155 156 155 158 160 162 156 157 136 113 119 127 139 138 141 146 147 144 148
118 147 31 77 98 223 198 264 64 234 326 155 115 62 56 313 142 149 157 161 163 162 162 162 167 166 165 163 158 152 158 160 158 162 162 161 165 166 150 121 127 141 140 141 141 156 154 150 150
163 43 63 71 229 265 231 225 230 251 116 88 133 105 112 106 144 153 158 163 166 162 164 165 168 166 169 166 162 158 161 155 154 154 158 158 164 166 155 137 138 135 148 148 152 148 148 148 149
73 101 49 61 256 247 251 225 208 235 124 125 97 94 125 203 174 162 163 165 168 165 165 167 169 166 165 163 163 161 162 160 160 156 156 156 161 163 158 149 147 140 143 151 154 147 153 150 155
133 77 165 272 311 298 233 167 190 171 143 119 136 87 123 162 169 164 166 167 169 169 166 171 172 169 164 160 164 165 169 169 163 161 156 156 163 171 168 161 156 156 150 154 160 160 155 165 166
151 97 144 310 34 288 143 140 187 158 144 150 164 149 172 175 165 168 169 170 172 173 171 175 177 176 169 170 169 170 178 176 167 168 158 159 171 186 175 168 164 165 162 165 172 184 190 186 188
150 72 151 175 163 238 164 142 164 181 147 157 181 178 170 164 169 169 173 175 178 180 180 181 184 184 179 176 178 176 177 186 174 175 168 161 157 195 192 182 168 165 167 176 183 192 196 203 213
108 83 220 199 198 183 180 160 171 138 158 114 147 154 167 165 170 172 178 180 184 188 187 188 189 188 185 181 187 184 184 190 187 184 180 170 160 154 178 181 171 162 173 192 194 195 202 211 211
166 193 232 240 159 162 156 182 176 130 226 204 167 160 168 170 174 175 179 186 191 193 193 191 193 193 192 190 194 192 190 193 195 195 194 189 182 178 186 187 187 193 198 202 215 212 206 211 221
315 231 247 206 199 162 167 176 198 168 286 246 194 174 171 176 179 180 183 192 196 195 194 193 196 199 201 201 202 199 198 199 203 203 204 211 212 200 187 195 203 209 211 213 214 203 210 223 218
209 221 244 237 191 177 173 193 169 200 282 169 170 175 179 182 185 188 191 195 201 200 198 197 198 202 207 208 208 205 201 202 206 206 212 213 215 214 203 195 203 210 217 221 227 226 227 230 219
265 259 224 264 165 176 164 149 160 162 172 173 177 182 190 190 190 191 197 198 205 204 203 202 204 206 208 212 212 209 205 202 204 206 206 213 211 214 222 220 222 211 228 238 242 240 240 234 237
262 309 121 157 159 147 131 315 237 178 177 181 184 189 198 199 199 201 201 201 200 206 204 207 207 212 213 217 215 210 202 201 202 208 208 214 220 217 229 238 250 242 244 234 242 242 229 221 227
29 57 106 229 162 198 156 252 221 185 181 188 187 191 199 202 208 211 213 210 207 204 206 208 210 216 217 216 215 209 203 204 202 203 211 216 226 229 227 235 245 251 256 251 244 229 226 217 225
14 103 42 360 247 55 192 262 224 184 189 196 193 197 198 209 214 219 222 221 218 219 215 216 213 213 209 208 209 205 203 202 202 206 211 221 223 227 226 237 243 242 252 248 244 233 231 227 217
358 356 325 217 221 185 228 261 232 189 192 203 205 210 208 214 223 220 224 229 227 230 227 224 221 216 212 209 206 203 205 205 211 207 218 225 220 225 235 232 235 237 248 254 246 232 236 222 225
154 206 276 266 221 225 219 258 243 195 209 203 213 217 219 223 230 228 223 228 232 235 228 222 223 222 215 213 208 209 212 211 214 207 215 227 228 232 250 251 247 233 235 256 251 233 235 224 218
188 305 288 287 337 174 163 229 270 177 222 214 210 218 227 231 232 226 230 231 229 232 234 226 225 226 224 221 216 217 219 219 230 208 223 227 233 246 256 267 276 253 250 243 243 240 233 228 220
253 221 249 243 304 36 76 302 283 262 224 217 230 237 237 237 237 236 224 232 235 227 232 231 228 230 229 228 223 223 229 231 232 223 221 218 226 251 255 270 273 276 264 252 243 240 238 231 220
274 201 249 277 184 239 5 259 287 311 286 226 231 230 241 245 236 235 230 246 228 226 233 231 234 235 234 232 228 230 233 233 231 225 229 222 248 251 251 259 277 279 268 262 238 239 241 232 227
205 194 263 345 129 194 2 72 270 360 306 248 222 232 240 244 241 237 241 242 242 231 238 240 232 238 238 238 231 236 235 241 239 232 225 229 270 253 250 254 272 279 266 254 244 241 243 238 227
128 76 41 56 77 49 330 127 290 244 227 289 231 232 243 248 246 246 247 238 244 243 241 236 238 240 242 239 237 241 238 235 241 241 237 252 257 263 254 250 262 271 263 254 248 238 247 246 227
94 64 339 3 16 219 308 66 239 263 251 234 272 257 247 249 250 254 246 241 236 232 254 234 235 237 245 242 236 237 239 234 240 244 254 255 251 261 257 253 256 265 262 253 250 239 242 232 211
171 150 157 191 190 249 271 237 247 229 247 257 269 274 259 254 251 245 241 236 233 230 257 246 235 249 243 237 239 238 240 234 246 251 250 252 250 269 259 246 250 261 259 261 250 239 227 219 211
186 169 178 106 13 69 260 294 306 256 250 266 263 267 265 253 246 236 229 235 228 234 247 260 236 242 238 240 236 232 226 239 242 234 234 244 254 259 241 244 249 251 274 266 242 234 218 213 210
159 155 85 8 135 215 296 289 237 298 254 243 261 256 264 254 244 226 213 211 215 220 233 241 237 244 243 236 230 231 232 236 231 230 234 239 236 239 237 235 236 248 273 268 239 227 218 206 208
96 183 55 122 129 171 210 258 217 240 239 264 252 251 258 257 246 235 202 198 206 200 207 220 225 232 229 230 230 232 229 221 220 219 207 208 220 220 225 230 235 248 280 251 230 227 211 202 201
145 184 141 130 231 155 171 255 230 231 239 251 268 271 282 265 256 244 207 202 198 199 208 228 224 227 225 217 208 200 190 189 188 189 193 209 220 221 223 228 233 229 244 247 213 217 199 197 210